Location: Bats
(43.6587°N, 0.4584°W)
Time: 06:32:06
(UTC+00:00)

SMAP - Pass Details

Date: 12 January 2026
Orbit: 681 x 683 km, 98.1° (Epoch: 10 February)

Event Time Altitude Azimuth Distance (km) Brightness Sun altitude
Rises 17:35:51 0° 172° (S) 3,031 6.6 -8.8°
Reaches altitude 10° 17:38:06 10° 175° (S) 2,120 5.8 -9.2°
Maximum altitude 17:42:43 67° 258° (WSW) 741 3.5 -10.0°
Drops below altitude 10° 17:47:22 10° 342° (NNW) 2,136 5.6 -10.8°
Sets 17:49:38 0° 345° (NNW) 3,056 6.4 -11.1°
